Location: Unspecified
(58.7730°N, 5.8460°E)
Time: 09:23:19
(UTC+02:00)

Resurs 1-4 Rocket - Visible Passes

Search period start: 31 July 2014 00:00
Search period end: 10 August 2014 00:00
Orbit: 800 x 815 km, 98.3° (Epoch: 30 July)

Date Brightness Start Highest point End Pass type
(mag) Time Alt. Az. Time Alt. Az. Time Alt. Az.
01 Aug 4.8 04:07:56 10° NE 04:10:13 13° E 04:12:29 10° ESE visible
04 Aug 4.6 04:33:36 10° NE 04:37:20 19° E 04:41:03 10° SE visible
05 Aug 4.8 04:10:01 10° NE 04:12:30 13° E 04:14:59 10° ESE visible
08 Aug 4.6 04:35:47 10° NE 04:39:37 20° E 04:43:26 10° SE visible
09 Aug 4.8 04:12:07 10° NE 04:14:48 14° E 04:17:28 10° ESE visible
